Powrót do katalogu

STARLINK-33705

AktywnyŁącznośćVLEO
NORAD 63651·PAYLOAD·🇺🇸 United States

Wystrzelony Apr 25, 2025 z Cape Canaveral Space Force Station

Loading…

Następne Przeloty (najbliższe 24 godziny)

TLE

ŚwieżeSource: CelesTrak SupGP

Epoka: Sep 14, 2026, 21:32 UTC

1 63651C 25083T   26257.89770833  .00028380  00000+0  10278-2 0  2573
2 63651  43.0017  16.5634 0001844 277.5887 125.8257 15.27568925    15

Śledź STARLINK-33705 w czasie rzeczywistym z AllMySat

Download on the App Store